Ashtabula, OH

12:29 AM EDT on April 30, 2017 (GMT -0400)
Ashtabula County

Weather History for KHZY - November, 2013

Change the Weather History Date:

Wednesday, November 20, 2013

  Actual Average (KGKJ) Record (KGKJ)
Temperature  
Mean Temperature 35 °F -  
Max Temperature 46 °F 48 °F 73 °F (1985)
Min Temperature 24 °F 30 °F 14 °F (1951)
Degree Days  
Heating Degree Days 30    
Moisture  
Dew Point 18 °F    
Average Humidity 55    
Maximum Humidity 88    
Minimum Humidity 28    
Precipitation  
Precipitation 0.00 in - - ()
Sea Level Pressure  
Sea Level Pressure 30.43 in    
Wind  
Wind Speed 5 mph (SE)    
Max Wind Speed 13 mph    
Max Gust Speed 18 mph    
Visibility 10 miles    
Events      
Averages and records for this station are not official NWS values.
T = Trace of Precipitation, MM = Missing Value Source: NWS Daily Summary

Daily Weather History Graph

Daily Weather History Graph

Search for Another Location

Airport or City:

Trip Planner

Search our weather history database for the weather conditions in past years. The results will help you decide how hot, cold, wet, or windy it might be!

Date:

Astronomy

Nov. 20, 2013 Rise Set
Actual Time 7:18 AM EST 4:58 PM EST
Civil Twilight 6:48 AM EST 5:28 PM EST
Nautical Twilight 6:14 AM EST 6:02 PM EST
Astronomical Twilight 5:41 AM EST 6:35 PM EST
Moon 7:39 PM EST (11/20) 9:42 AM EST (11/20)
Length of Visible Light 10h 40m
Length of Day
9h 39m
Waning Gibbous, 91% of the Moon is Illuminated
Nov 20
Waning Gibbous
Nov 25
Last Quarter
Dec 2
New
Dec 9
First Quarter
Dec 17
Full

Hourly Weather History & Observations

Time (EST) Temp. Windchill Dew Point Humidity Pressure Visibility Wind Dir Wind Speed Gust Speed Precip Events Conditions
12:53 AM 26.1 °F - 21.0 °F 81% 30.45 in 10.0 mi Calm Calm - N/A   Clear
1:53 AM 26.1 °F - 21.0 °F 81% 30.45 in 10.0 mi Calm Calm - N/A   Clear
2:53 AM 26.1 °F - 21.9 °F 84% 30.46 in 10.0 mi Calm Calm - N/A   Clear
3:53 AM 25.0 °F 20.7 °F 21.0 °F 85% 30.46 in 10.0 mi East 3.5 mph - N/A   Clear
4:53 AM 25.0 °F 18.1 °F 21.0 °F 85% 30.46 in 10.0 mi East 5.8 mph - N/A   Clear
5:53 AM 27.0 °F 23.0 °F 21.0 °F 78% 30.47 in 10.0 mi East 3.5 mph - N/A   Clear
6:53 AM 24.1 °F - 19.0 °F 81% 30.48 in 10.0 mi Calm Calm - N/A   Clear
7:53 AM 24.1 °F - 21.0 °F 88% 30.50 in 10.0 mi Calm Calm - N/A   Clear
8:53 AM 28.9 °F 22.8 °F 21.9 °F 75% 30.51 in 10.0 mi SE 5.8 mph - N/A   Clear
9:53 AM 33.1 °F 25.5 °F 19.9 °F 59% 30.50 in 10.0 mi SSE 9.2 mph - N/A   Clear
10:53 AM 37.0 °F 29.8 °F 19.0 °F 48% 30.49 in 10.0 mi SE 10.4 mph - N/A   Clear
11:53 AM 41.0 °F 34.7 °F 17.1 °F 38% 30.46 in 10.0 mi ESE 10.4 mph - N/A   Clear
12:53 PM 44.1 °F 37.7 °F 16.0 °F 32% 30.43 in 10.0 mi SE 12.7 mph - N/A   Clear
1:53 PM 46.0 °F 40.6 °F 14.0 °F 28% 30.40 in 10.0 mi SSE 11.5 mph 18.4 mph N/A   Clear
2:53 PM 45.0 °F 38.9 °F 14.0 °F 29% 30.39 in 10.0 mi SSE 12.7 mph - N/A   Clear
3:53 PM 44.1 °F 39.0 °F 17.1 °F 34% 30.38 in 10.0 mi SE 9.2 mph - N/A   Clear
4:53 PM 41.0 °F 37.1 °F 16.0 °F 36% 30.38 in 10.0 mi SE 5.8 mph - N/A   Clear
5:53 PM 37.0 °F 33.3 °F 16.0 °F 42% 30.37 in 10.0 mi ESE 4.6 mph - N/A   Clear
6:53 PM 37.9 °F 32.7 °F 14.0 °F 38% 30.38 in 10.0 mi ESE 6.9 mph - N/A   Clear
8:53 PM 39.0 °F 32.3 °F 12.0 °F 33% 30.37 in 10.0 mi SSE 10.4 mph - N/A   Clear
9:53 PM 37.9 °F 30.9 °F 12.9 °F 36% 30.37 in 10.0 mi SE 10.4 mph - N/A   Clear
10:53 PM 37.0 °F 31.0 °F 12.9 °F 37% 30.37 in 10.0 mi SSE 8.1 mph - N/A   Clear
11:53 PM 37.0 °F 28.9 °F 12.9 °F 37% 30.37 in 10.0 mi SSE 12.7 mph - N/A   Clear